Location: *
(48.8023°S, 170.9012°W)
Time: 06:38:35
(UTC+00:00)

Daily predictions for brighter satellites

Satellite Brightness Start Highest point End
(mag) Time Altitude Azimuth Time Altitude Azimuth Time Altitude Azimuth
USA 59 Rocket 3.1 13:51:12 39° SSE 13:51:12 39° SSE 13:57:12 10° SE
ATLAS 3B R/B 4.4 14:53:40 21° SSE 14:53:40 21° SSE 14:57:13 10° ESE
Lacrosse 5 4.2 15:06:28 21° ESE 15:06:28 21° ESE 15:08:20 10° E
SL-16 R/B 4.1 14:59:00 10° SSE 15:01:47 28° SSE 15:01:47 28° SSE
Cosmos 2322 Rocket 4.1 15:18:18 23° SSE 15:18:18 23° SSE 15:20:24 10° SSE
ATLAS 5 CENTAUR R/B 3.5 15:29:52 51° ENE 15:29:52 51° ENE 15:38:20 10° NE
Cosmos 2333 Rocket 3.4 15:31:45 36° SE 15:31:45 36° SE 15:35:05 10° SSE
Cosmos 2278 Rocket 3.8 15:34:29 26° SSE 15:35:55 29° SE 15:40:52 10° ENE
USA 59 Rocket 2.8 15:37:46 38° SSW 15:39:02 39° SSW 15:48:21 10° SE
ATLAS 5 CENTAUR R/B 3.2 15:47:16 34° NE 15:47:16 34° NE 15:49:49 10° NE
NOSS 3-1 (C) 4.1 15:51:47 44° S 15:52:58 49° SE 15:58:24 10° ENE
Lacrosse 5 rocket 3.7 15:56:03 19° E 15:56:03 19° E 15:57:36 10° ESE
Cosmos 2228 4.1 16:01:39 43° E 16:01:39 43° E 16:05:41 10° SSE
Cosmos 2219 Rocket 2.2 16:03:20 82° SE 16:03:20 82° SE 16:08:50 10° SSE
SL-16 R/B 3.9 16:06:58 21° S 16:06:58 21° S 16:09:12 10° SSE
Cosmos 2322 4.1 16:09:03 25° N 16:12:18 63° ENE 16:17:57 10° SSE
Cosmos 1758 Rocket 4.0 16:13:40 62° E 16:13:40 62° E 16:17:51 10° NNE
BREEZE-M DEB (TANK) 4.2 16:13:24 23° NNE 16:14:11 25° NE 16:19:16 10° ESE
Cosmos 2360 Rocket 3.1 16:18:21 34° S 16:18:21 34° S 16:22:00 10° SSE
SMAP 3.8 16:12:30 10° NE 16:17:03 51° ESE 16:19:41 24° S
Cosmos 2333 4.4 16:18:55 54° SSW 16:18:55 54° SSW 16:23:49 10° SSE
Cosmos 1271 Rocket 3.5 16:24:18 50° ESE 16:24:30 50° ESE 16:28:13 10° NNE
Cosmos 1459 Rocket 4.4 16:19:13 10° S 16:25:21 62° ESE 16:31:22 10° NNE
ISS -2.1 16:29:08 33° ESE 16:29:08 33° ESE 16:31:18 10° E
Helios 1B rocket 4.2 16:25:10 10° NE 16:28:36 29° ESE 16:31:50 11° S
Cosmos 1943 Rocket 3.3 16:25:06 19° S 16:28:40 40° SE 16:33:53 10° ENE
Meteor 2-3 Rocket 3.6 16:27:36 33° SSW 16:30:19 81° W 16:35:59 10° N
Cosmos 1605 Rocket 4.5 16:32:29 41° NW 16:32:29 41° NW 16:37:11 10° NNW
Cosmos 2237 Rocket 3.9 16:31:38 10° NNE 16:36:38 33° ENE 16:41:40 10° SE
Cosmos 1666 3.8 16:36:49 26° SSE 16:38:21 40° ESE 16:41:41 10° NNE
COSMOS 2428 2.8 16:32:43 10° NNW 16:38:28 79° ENE 16:44:18 10° SSE
PSLV R/B 3.9 16:35:43 10° N 16:39:08 51° NNW 16:39:08 51° NNW
Cosmos 1802 Rocket 4.4 16:34:05 10° S 16:40:16 63° ESE 16:46:27 10° NNE
ATLAS 3B R/B 3.2 16:40:55 23° SSW 16:44:35 48° SE 16:50:36 10° ENE
Cosmos 773 Rocket 3.9 16:41:52 20° NNW 16:45:34 77° WSW 16:50:57 10° SSE
Lacrosse 5 1.8 16:45:41 52° WSW 16:46:57 84° NW 16:52:04 10° NE
SL-16 R/B 3.6 16:43:11 10° S 16:46:52 26° SSW 16:46:52 26° SSW
Cosmos 1000 Rocket 4.5 16:43:58 10° N 16:50:13 85° E 16:56:30 10° S
Meteor 2-1 Rocket 4.4 16:50:18 19° NW 16:54:12 47° WSW 16:59:44 10° S
Cosmos 1500 2.9 16:53:57 54° S 16:54:40 84° E 16:58:11 10° N
CZ-4B R/B 4.4 16:51:42 10° NNE 16:55:25 55° ESE 16:59:05 12° S
Gblst 52 Del rocket 4.3 16:53:32 40° WSW 16:55:39 67° S 17:01:14 10° E
Gbstr 26 Del rocket 4.3 16:55:36 29° NW 16:55:59 29° NW 17:00:37 10° NNE
AQUARIUS 4.1 16:53:14 10° NNE 16:57:44 90° E 17:01:38 14° SSW
USA 81 4.0 16:52:31 10° N 16:57:50 89° E 17:03:14 10° S
USA 307 3.4 16:58:15 37° SSW 16:58:43 38° S 17:02:28 10° ESE
Cosmos 2322 Rocket 3.5 17:00:08 22° SSW 17:00:08 22° SSW 17:03:54 10° S
CZ-2C R/B 2.7 16:59:19 10° NNE 17:03:01 79° ESE 17:05:41 19° S
USA 276 2.2 17:04:40 57° NNW 17:04:40 57° NNW 17:07:41 10° ENE
DMSP B5D2-2 4.3 17:00:03 10° S 17:05:04 45° WSW 17:10:02 10° NW
Cosmos 1862 3.4 17:10:01 39° SW 17:11:01 49° W 17:14:49 10° N
Cosmos 2061 Rocket 4.4 17:07:22 10° S 17:13:51 70° ESE 17:20:18 10° NNE
Cosmos 2333 Rocket 3.3 17:13:47 24° SW 17:14:13 25° SW 17:18:56 10° SSE
Cosmos 1602 4.0 17:13:36 10° S 17:17:22 65° E 17:21:03 10° NNE
Cosmos 2278 Rocket 2.2 17:16:21 19° SW 17:20:24 61° WNW 17:26:00 10° N
USA 305 3.4 17:20:07 28° SW 17:21:39 41° SSE 17:25:20 10° E
Cosmos 1076 Rocket 4.3 17:18:10 10° S 17:22:32 54° ESE 17:26:47 10° NNE
Cosmos 1238 Rocket 4.1 17:20:52 10° NNE 17:23:34 31° E 17:26:17 10° SSE
YAOGAN 11 4.2 17:21:21 10° SSE 17:26:01 90° WNW 17:30:34 10° NNW
ATLAS 5 CENTAUR R/B 3.5 17:28:08 17° WNW 17:28:08 17° WNW 17:30:53 10° NNW
CZ-4 R/B 4.5 17:24:02 10° NNE 17:28:08 83° ESE 17:32:19 10° SSW
Cosmos 1953 Rocket 3.5 17:24:26 10° S 17:28:56 87° W 17:33:21 10° N
Meteor 2-8 Rocket 4.4 17:23:10 10° SSW 17:29:17 67° W 17:35:23 10° N
SKYMED 2 4.0 17:27:00 10° SSE 17:31:26 66° ENE 17:35:48 10° N
Magion 5 Rocket2 4.1 17:26:42 13° WNW 17:31:41 47° SW 17:36:48 10° SE
USA 59 Rocket 2.9 17:24:19 15° SW 17:32:18 37° S 17:40:40 10° ESE
Lacrosse 5 rocket 1.0 17:30:55 26° W 17:32:42 57° SSW 17:36:17 10° SE
ATLAS 2AS CENTAUR R/B 2.7 17:26:12 10° NW 17:32:58 86° SW 17:40:08 10° SE
YAOGAN 1 3.6 17:30:25 10° NE 17:34:36 48° ESE 17:38:49 10° S
Meteor 1-27 4.4 17:30:30 10° NNW 17:36:06 51° WSW 17:41:43 10° S
Iridium 4 Rocket 4.2 17:32:05 10° NW 17:36:32 31° WSW 17:41:23 10° SSW
Meteor 1-31 Rocket 2.9 17:33:10 10° N 17:36:50 49° W 17:40:27 11° SSW
Cosmos 192 4.3 17:31:50 10° SSW 17:36:51 86° WNW 17:41:46 10° NNE
Cosmos 2123 Rocket 4.0 17:32:25 10° NNW 17:38:39 65° WSW 17:45:00 10° S
Cosmos 2228 4.2 17:38:30 21° W 17:39:04 22° WSW 17:42:27 10° SSW
NOSS 3-1 (C) 3.7 17:39:11 17° SW 17:43:41 42° WNW 17:48:36 10° N
Cosmos 2084 3.7 17:41:22 16° SW 17:45:16 90° NNW 17:50:00 10° NE
CZ-4B R/B 3.9 17:41:04 10° NNE 17:46:12 65° ESE 17:51:15 10° S
Cosmos 1538 Rocket 4.0 17:41:05 10° NNW 17:46:26 87° WSW 17:51:55 10° SSE
Cosmos 1812 2.6 17:42:57 10° N 17:46:35 87° ENE 17:50:17 10° S
Cosmos 2219 Rocket 3.4 17:45:06 17° WSW 17:47:47 23° SW 17:52:15 10° S
Cosmos 1825 Rocket 4.2 17:44:21 10° SSW 17:48:23 35° W 17:52:22 10° NNW
Cosmos 1606 Rocket 3.9 17:44:30 10° NW 17:48:43 42° WSW 17:52:59 10° S
SL-16 R/B 4.2 17:49:00 10° SW 17:50:09 11° SSW 17:51:19 10° S
NOSS 3-1 (A) 3.3 17:44:07 12° SW 17:50:12 73° NW 17:55:31 10° NNE
NOAA 6 4.0 17:45:20 10° N 17:50:31 76° WNW 17:55:46 10° SSW
NOSS 0 Rocket 4.0 17:45:01 10° NW 17:51:11 59° SW 17:57:23 10° SSE
SAR-Lupe-2 3.6 17:49:05 10° N 17:52:40 60° WNW 17:56:19 10° SSW
CBERS 1 LM4 rocket 4.5 17:48:26 10° NNE 17:53:23 84° ESE 17:58:16 10° SSW
Helios 1A 4.1 17:49:28 10° SSE 17:53:31 46° E 17:57:29 10° N
SMAP 4.3 17:51:03 10° NW 17:54:41 22° W 17:58:08 11° SW
CZ-4 R/B 3.4 17:51:14 10° NE 17:54:42 28° ESE 17:58:09 10° S
Resurs 01 Rocket 4.1 17:54:35 10° ENE 17:57:43 19° ESE 18:00:53 10° SSE
Cosmos 1271 Rocket 4.4 17:58:53 14° WSW 17:59:24 15° W 18:01:34 10° WNW
Okean O Rocket 4.2 17:57:38 10° E 18:00:30 17° ESE 18:03:23 10° SSE
SL-16 R/B 3.4 17:55:36 10° N 18:01:01 47° ENE 18:06:29 10° SE
Meteor PRIRODA 4.0 17:58:05 10° NNE 18:01:29 60° ESE 18:04:56 10° S
Cosmos 2369 Rocket 3.2 17:56:05 10° SSW 18:01:39 45° SE 18:07:08 10° NE
Cosmos 1725 Rocket 4.4 17:56:07 10° SSW 18:01:58 42° W 18:07:45 10° NNW
Cosmos 2360 Rocket 3.9 18:00:08 11° SW 18:02:05 13° SSW 18:04:46 10° S
Helios 1B rocket 3.3 17:59:35 10° NNW 18:03:02 28° W 18:06:32 10° SW
Cosmos 2058 Rocket 3.0 17:58:48 10° NNW 18:03:14 71° W 18:07:41 10° S
ISS -3.6 18:02:01 14° WSW 18:04:47 69° NNW 18:08:10 10° ENE
USA 229 DEB 3.9 17:58:25 10° SW 18:05:14 63° SE 18:11:23 10° ENE
USA 229 3.9 17:58:33 10° SW 18:05:21 63° SE 18:11:29 10° ENE
USA 306 0.4 18:06:47 30° S 18:06:54 32° SSE 18:07:48 10° E
Landsat 7 3.9 18:05:21 10° NNE 18:10:06 90° NNW 18:14:57 10° SSW
Cosmos 44 3.5 18:05:22 10° SW 18:10:11 63° NW 18:15:15 10° NNE
USA 290 2.4 18:08:09 10° SSW 18:11:28 60° WNW 18:14:45 10° N
Cosmos 1726 Rocket 4.2 18:07:29 10° NW 18:11:31 33° WSW 18:15:35 10° S
Geosat 4.0 18:06:46 10° SSE 18:11:50 70° WSW 18:16:50 10° NW
Cosmos 1666 4.2 18:10:30 11° SW 18:12:19 15° W 18:14:25 10° WNW
Cosmos 1943 Rocket 2.7 18:07:14 10° SW 18:12:24 40° WNW 18:17:33 10° N
Meteor 1-20 Rocket 4.2 18:06:56 10° SSW 18:12:31 82° W 18:18:06 10° N
SeaSat 1 3.7 18:08:01 10° ENE 18:12:32 37° SE 18:17:06 10° SSW
SJ-6B 3.8 18:09:54 10° NNE 18:13:43 49° ESE 18:17:38 10° S
ADEOS Rocket 3.2 18:07:48 10° N 18:14:12 57° WNW 18:20:05 10° SSW
Cosmos 923 Rocket 4.2 18:11:29 10° NNW 18:16:42 78° ENE 18:21:58 10° SSE
IGS 5A 4.1 18:13:15 10° NNW 18:17:04 36° W 18:20:57 10° SSW
COSMO-SKYMED 1 3.0 18:15:15 10° S 18:19:27 43° WSW 18:23:36 10° NW
Cosmos 2237 Rocket 2.5 18:15:06 10° NW 18:20:32 47° SW 18:26:02 10° SSE
Cosmos-2242 3.2 18:17:32 10° N 18:21:52 79° E 18:26:13 10° SSE
COSMOS 2428 3.8 18:18:43 10° W 18:23:23 25° SW 18:28:07 10° SSE
Cosmos 2151 4.1 18:20:33 10° SSW 18:24:06 25° W 18:27:36 10° NW
Meteor 1-25 Rocket 4.3 18:21:47 10° SSW 18:27:38 76° W 18:33:20 10° N
Lacrosse 5 3.5 18:25:40 10° WSW 18:29:19 20° WNW 18:32:55 10° N
SL-24 R/B - RUBIN 2 3.5 18:24:58 10° NW 18:29:31 68° SW 18:33:49 10° SE
Cosmos 1980 4.2 18:25:19 10° WNW 18:30:39 39° SW 18:36:03 10° SSE
Cosmos 1371 Rocket 4.1 18:27:04 10° SSW 18:32:20 89° ESE 18:37:34 10° NNE
Cosmos 1420 Rocket 4.0 18:27:09 10° SSW 18:32:25 79° WNW 18:37:38 10° NNE
